Location: Gourdan-Polignan
(43.0709°N, 0.5748°E)
Time: 20:17:52
(UTC+00:00)

Cosmos 1743 - Pass Details

Date: 15 May 2026
Orbit: 368 x 373 km, 82.5° (Epoch: 7 June)

Event Time Altitude Azimuth Distance (km) Brightness Sun altitude
Rises 19:44:39 0° 358° (N) 2,248 6.5 -5.6°
Reaches altitude 10° 19:46:41 10° 5° (N) 1,394 5.3 -5.9°
Maximum altitude 19:49:36 44° 79° (E) 534 2.5 -6.4°
Drops below altitude 10° 19:52:30 10° 154° (SSE) 1,390 4.4 -6.8°
Enters shadow 19:53:19 - 157° (SSE) 1,725 4.9 -6.9°
